FW8918 Weather Reports


time (UTC)temp
C
wind
direction
speed
KPH
gust
KPH
rain 1hr
cm
rain 24hr
cm
rain mn
cm
humidity
%
barometer
mb
20260902173035 17 242 8.0 16.1 0.00 0.15 0.15 86 1015.7
20260902171541 17 276 6.4 17.7 0.00 0.15 0.15 86 1015.8
20260902170038 17 267 8.0 17.7 0.00 0.15 0.15 85 1015.7
20260902164543 17 236 6.4 16.1 0.00 0.28 0.15 85 1015.6
20260902163034 17 285 6.4 17.7 0.00 0.28 0.15 84 1015.7
20260902161537 17 276 8.0 17.7 0.00 0.28 0.15 84 1015.6
20260902160033 18 236 4.8 16.1 0.00 0.28 0.15 84 1015.6
20260902154534 18 306 4.8 17.7 0.00 0.28 0.15 83 1015.7
20260902153037 18 287 6.4 19.3 0.00 0.28 0.15 84 1015.6
20260902151536 18 274 8.0 19.3 0.00 0.28 0.15 83 1015.7
20260902150040 17 277 9.7 24.1 0.00 0.28 0.15 84 1015.8
20260902144534 18 252 9.7 20.9 0.00 0.28 0.15 85 1015.8
20260902143038 18 248 9.7 22.5 0.00 0.28 0.15 85 1015.7
20260902141538 17 245 9.7 20.9 0.00 0.28 0.15 86 1015.7
20260902140037 17 229 9.7 20.9 0.03 0.28 0.15 86 1015.8
20260902134536 18 280 8.0 19.3 0.03 0.28 0.15 86 1015.8
20260902133050 17 250 8.0 19.3 0.03 0.28 0.15 90 1015.6
20260902131534 17 256 12.9 32.2 0.03 0.28 0.15 85 1015.7
20260902130037 19 270 12.9 27.4 0.00 0.25 0.10 81 1015.6
20260902124537 19 330 14.5 29.0 0.00 0.28 0.10 82 1015.6
20260902123033 19 277 12.9 30.6 0.00 0.28 0.10 81 1015.5
20260902121533 18 278 12.9 25.7 0.00 0.28 0.10 84 1015.5
20260902120038 18 290 11.3 24.1 0.00 0.28 0.10 84 1015.6
20260902114540 18 283 11.3 25.7 0.00 0.28 0.10 84 1015.6
20260902113050 18 264 11.3 25.7 0.00 0.28 0.10 85 1015.8
20260902111533 18 240 8.0 25.7 0.00 0.28 0.10 87 1015.9
20260902110037 17 278 9.7 24.1 0.00 0.28 0.10 87 1015.9
20260902104551 17 259 11.3 24.1 0.00 0.28 0.10 88 1015.7
20260902103036 17 263 9.7 24.1 0.00 0.28 0.10 88 1015.8
20260902101540 17 248 11.3 25.7 0.03 0.28 0.10 87 1015.8
20260902100035 18 221 9.7 20.9 0.08 0.25 0.08 85 1015.9
20260902094537 18 255 11.3 22.5 0.08 0.25 0.08 87 1015.8
20260902093040 17 236 9.7 17.7 0.08 0.25 0.08 89 1015.7
20260902091538 18 233 11.3 24.1 0.08 0.23 0.08 86 1015.7
20260902090036 18 194 11.3 27.4 0.00 0.15 0.00 81 1015.6
20260902084535 18 236 11.3 24.1 0.00 0.15 0.00 81 1015.6
20260902083048 18 270 14.5 24.1 0.00 0.15 0.00 82 1015.4
20260902081536 18 205 12.9 24.1 0.00 0.15 0.00 82 1015.2
20260902080034 18 210 9.7 19.3 0.00 0.15 0.00 84 1015.3
20260902074535 18 179 8.0 17.7 0.00 0.18 0.00 83 1015.2
20260902073038 17 237 9.7 19.3 0.00 0.18 0.00 84 1015.3
20260902071533 17 269 6.4 19.3 0.00 0.18 0.00 86 1015.3
20260902070041 17 260 9.7 17.7 0.00 0.18 0.00 86 1015.3
20260902064540 17 262 8.0 17.7 0.00 0.18 0.00 86 1015.2
20260902063038 17 312 8.0 17.7 0.00 0.18 0.00 85 1015.2
20260902061544 17 227 6.4 12.9 0.00 0.18 0.00 85 1015.1
20260902060035 17 234 6.4 14.5 0.00 0.18 0.00 85 1015.2
20260902054539 17 263 8.0 16.1 0.00 0.18 0.00 85 1015.1
20260902053033 17 247 8.0 20.9 0.00 0.18 0.00 86 1015.2
20260902051535 17 249 8.0 19.3 0.00 0.18 0.00 87 1015.1
20260902050035 17 251 6.4 14.5 0.00 0.18 0.00 86 1015.2
20260902044541 17 268 6.4 14.5 0.00 0.18 0.00 85 1015.3
20260902043042 17 266 8.0 16.1 0.00 0.18 0.00 86 1015.3
20260902041540 17 243 4.8 14.5 0.00 0.18 0.00 86 1015.3
20260902040036 17 306 6.4 17.7 0.00 0.18 0.00 86 1015.3
20260902034536 17 254 4.8 16.1 0.00 0.18 0.00 87 1015.3
20260902033041 17 259 6.4 16.1 0.00 0.18 0.00 87 1015.2
20260902031539 17 283 8.0 20.9 0.00 0.18 0.00 86 1015.3
20260902030034 17 249 11.3 20.9 0.00 0.18 0.00 86 1015.3
20260902024535 17 250 6.4 20.9 0.00 0.18 0.00 87 1015.5
20260902023037 17 266 8.0 22.5 0.00 0.18 0.00 86 1015.5
20260902021534 17 282 8.0 19.3 0.00 0.18 0.00 86 1015.6
20260902020038 17 262 9.7 22.5 0.00 0.18 0.00 85 1015.6
20260902014534 17 290 9.7 20.9 0.00 0.18 0.00 85 1015.7
20260902013035 17 240 11.3 24.1 0.00 0.18 0.00 85 1015.7
20260902011549 17 310 9.7 25.7 0.00 0.18 0.00 85 1015.7
20260902010034 17 248 9.7 24.1 0.00 0.18 0.00 85 1015.6
20260902004536 17 281 8.0 19.3 0.00 0.18 0.00 86 1015.7
20260902003038 17 189 9.7 19.3 0.00 0.18 0.00 86 1015.8
20260902001536 17 200 8.0 19.3 0.00 0.18 0.00 86 1015.8
20260902000039 17 231 6.4 14.5 0.00 0.18 0.00 86 1015.8
20260901234534 16 226 6.4 17.7 0.00 0.18 0.00 86 1015.9
20260901233035 16 298 6.4 20.9 0.00 0.18 0.00 86 1016.1
20260901231541 16 252 8.0 17.7 0.00 0.18 0.00 86 1016.1
20260901230035 16 226 8.0 17.7 0.00 0.18 0.00 86 1016.2
20260901224533 16 245 8.0 16.1 0.00 0.18 0.00 85 1016.4
20260901223033 16 245 8.0 19.3 0.00 0.18 0.00 86 1016.5
20260901221603 16 229 6.4 16.1 0.00 0.18 0.00 86 1016.5
20260901220048 16 233 8.0 17.7 0.00 0.18 0.00 85 1016.5
20260901214534 16 265 6.4 17.7 0.00 0.18 0.18 86 1016.5
20260901213033 16 262 6.4 19.3 0.00 0.18 0.18 85 1016.6
20260901211536 16 183 6.4 19.3 0.00 0.18 0.18 86 1016.7
20260901210035 16 276 6.4 16.1 0.00 0.18 0.18 85 1016.7
20260901204535 16 308 6.4 16.1 0.00 0.18 0.18 85 1016.6
20260901203037 16 248 4.8 12.9 0.00 0.18 0.18 85 1016.7
20260901201532 16 307 4.8 12.9 0.00 0.18 0.18 85 1016.7
20260901200039 16 269 4.8 9.7 0.00 0.18 0.18 85 1016.8
20260901194546 15 245 6.4 16.1 0.00 0.18 0.18 85 1017.0
20260901193040 15 283 4.8 14.5 0.00 0.18 0.18 84 1016.7
20260901191615 15 224 4.8 14.5 0.00 0.18 0.18 84 1016.9
20260901190036 15 286 6.4 12.9 0.00 0.18 0.18 85 1016.7
20260901184536 15 301 6.4 19.3 0.00 0.18 0.18 85 1016.6
20260901183046 15 255 8.0 16.1 0.00 0.18 0.18 87 1016.6
20260901181535 15 319 4.8 14.5 0.00 0.18 0.18 88 1016.4
20260901180036 16 281 6.4 11.3 0.00 0.18 0.18 89 1016.2
20260901174534 16 334 3.2 16.1 0.00 0.18 0.18 88 1016.1